1st Responders/1st Detectors/Storm Spotters Weather Summary for Lewis County, KY

Forecast Maps


Reg. NEXRAD Animation


National Fire Danger: Day 1 & 2 Map

Current NWS Watch/Warnings

SPC Convective Day 1 Outlook


Day 2 Outlook

(Click images to enlarge|Page will refresh every 5 minutes)
UK Ag. Weather Center Desktop Severe Weather Service[HERE]
Lewis County, KY Hazardous Weather Outlook Webcast
(9 AM to 9 PM Mon-Fri)
[Fast]
[Dial-up]


UKAWC 1st Detectors/1st Responders Precision Weather Forecast For LEWIS County, Kentucky
(based on the NWS County Digital Forecast)

ISSUED AT 17:00 UTC ON FRIDAY MAR 22 2019
DAY FRIDAY
EDT 3HR 2P 3P 4P 5P 6P 7P
MAX/MIN -- -- -- -- -- 49°
TEMP 49° 49° 47° 45° 43° 43°
SKY COVER 85% 79% 72% 66% 59% 53%
Clouds
DEW PT 32° 31° 31° 29° 27° 27°
RH 51% 51% 53% 55% 52% 52%
POP 12HR -- -- -- -- -- --
RAIN/SNOW (liq.equ) 0.00in -- -- -- -- --
SNOWFALL 0in -- -- -- -- --
WIND SPEED(MPH) 16 16 17 16 15 14
WIND Gust(MPH) 32 33 32 31 24 17
WIND DIR NW NW NW NW NW NW
DEW -- -- -- -- -- --
HeatIndex 49 49 47 37 36 36
Rain Showers -- -- Slight Chance Slight Chance Slight Chance --
WIND CHILL -- -- -- 38° 36° 36°
SPRAY COND
DRY COND
LIVESTOCK COLDSTRESS



DAY SATURDAY SUNDAY MONDAY TUESDAY WEDNESDAY THURSDAY
EDT 6HR 8P 9P 10P 11P MIDN 1A 2A 3A 4A 5A 6A 7A 8A 9A 10A 11A NOON 1P 2P 3P 4P 5P 6P 7P 8P 9P 10P 11P MIDN 1A 2A 5A 8A 11A 2P 5P 8P 2A 8A 2P 8P 2A 8A 2P 8P 2A 8A 2P 8P 2A 8A 2P 8P
MAX/MIN -- -- -- -- -- -- -- -- -- -- -- -- 27° -- -- -- -- -- -- -- -- -- -- 50° -- -- -- -- -- -- -- -- 31° -- -- 61° -- -- 45° 54° -- -- 29° 47° -- -- 27° 56° -- -- 36° 67° --
TEMP 41° 40° 38° 38° 36° 34° 34° 32° 31° 31° 29° 27° 27° 29° 32° 36° 40° 45° 47° 49° 50° 50° 49° 49° 45° 43° 41° 40° 38° 36° 36° 34° 34° 47° 58° 61° 56° 49° 49° 52° 45° 36° 29° 45° 41° 31° 29° 54° 49° 40° 38° 63° 59°
SKY COVER 46% 40% 34% 29% 23% 17% 11% 11% 10% 10% 10% 10% 10% 8% 6% 4% 3% 3% 2% 2% 2% 2% 2% 2% 2% 3% 5% 6% 7% 8% 10% 27% 54% 62% 70% 70% 91% 93% 100% 89% 42% 15% 10% 4% 10% 15% 6% 4% 11% 14% 21% 33% 41%
Clouds
DEW PT 25° 25° 25° 25° 25° 25° 25° 25° 23° 23° 23° 22° 22° 22° 22° 22° 22° 20° 20° 20° 20° 20° 20° 22° 22° 22° 22° 22° 22° 22° 22° 22° 23° 27° 29° 32° 38° 43° 43° 45° 36° 25° 18° 20° 20° 22° 20° 27° 31° 31° 31° 36° 38°
RH 52% 55% 58% 61% 61% 66% 69% 72% 72% 75% 81% 85% 84% 74% 63% 54% 46% 37% 33% 30% 29% 29% 31% 34% 41% 44% 46% 49% 51% 56% 58% 60% 63% 43% 32% 34% 50% 80% 79% 76% 68% 63% 63% 36% 43% 66% 71% 34% 49% 70% 75% 36% 43%
POP 12HR 24% -- -- -- -- -- -- -- -- -- -- -- 0% -- -- -- -- -- -- -- -- -- -- -- 0% -- -- -- -- -- -- -- 2% -- -- -- 26% -- 80% -- 82% -- 11% -- 3% -- 3% -- 3% -- 5% -- 6%
RAIN/SNOW (liq.equ) 0.01in -- -- -- -- -- 0.00in -- -- -- -- -- 0.00in -- -- -- -- -- 0.00in -- -- -- -- -- 0.00in -- -- -- -- -- 0.00in -- 0.00in -- 0.00in -- 0.02in 0.03in 0.07in -- -- -- -- -- -- -- -- -- -- -- -- -- --
SNOWFALL 0in -- -- -- -- -- 0in -- -- -- -- -- 0in -- -- -- -- -- 0in -- -- -- -- -- 0in -- -- -- -- -- 0in -- 0in -- 0in -- 0in 0in 0in -- -- -- -- -- -- -- -- -- -- -- -- -- --
WIND SPEED(MPH) 10 9 8 7 7 7 7 7 6 6 5 5 5 5 5 5 5 5 5 6 6 6 5 2 1 1 1 1 1 1 1 1 1 5 6 7 6 7 6 6 8 7 7 7 6 5 2 5 1 5 5 8 6
WIND DIR NW NW NW NW NW NW NW NW NW NW NW NW NW NW NW NW NW NW NW NW NW NW NW NW NW N NE NE E SE SE SE SE S SW SW SW SW SW N NE NE NE NE N NE NE S E S S SW S
HeatIndex 35 34 32 32 30 29 27 26 26 25 23 21 21 25 28 33 38 42 47 49 50 50 49 49 45 43 41 40 38 36 36 34 34 47 58 61 56 49 49 52 45 29 22 41 38 27 25 54 49 36 34 63 59
Rain Showers -- -- -- -- -- -- -- -- -- -- -- -- -- -- -- -- -- -- -- -- -- -- -- -- -- -- -- -- -- -- -- -- -- -- -- -- Chance Chance Definite Chance -- -- -- -- -- -- -- -- -- -- -- -- --
WIND CHILL 35° 34° 32° 33° 30° 28° 28° 26° 25° 25° 24° 22° 22° 24° 28° 32° 37° 43° -- -- -- -- -- -- -- -- -- -- -- -- -- -- -- -- -- -- -- -- -- -- 41° 30° 22° 41° 37° 26° -- -- -- 37° 35° -- --
SPRAY COND
DRY COND
LIVESTOCK COLDSTRESS

Click on individual weather variable above in left-hand column (ie., TEMP, RH, QPF 12HR) to view state forecast maps






NWS 48 Hr. Forecast Maps,

Regional Hourly Observations For LEWIS County, Kentucky
Issued at 100 PM EDT FRI MAR 22 2019
NORTHEAST KENTUCKY
  
CITY           SKY/WX    TMP DP  RH WIND       PRES   REMARKS
LEXINGTON      FAIR      53  36  52 W18G25    29.97F                  
COVINGTON      PTSUNNY   46  31  55 N17G28    29.98R                  
FRANKFORT      FAIR      54  36  50 W14G24    29.98S                  


Current NOWCAST not available:
Nowcasts are not issued routinely during fair weather. Only when
precipitation or other significant weather is occuring in this county will these
forecasts be issued. Currently, there is no short term forecast in effect.


Fire Weather Forecast For LEWIS County, KY
Provided by the National Weather Service:

Issued at: Fri Mar 22 13:05:01 EDT 2019

CLOUD COVER                     MCldy       MClear        Clear
PRECIP TYPE                      None         None         None
CHANCE PRECIP (%)                   0            0            0
TEMP (24H TREND)              48 (-2)     25 (-13)           51
RH % (24H TREND)             43 (-21)      85 (-4)           29
20FTWND-AM(MPH)              W 10 G18                   Lgt/Var
20FTWND-PM(MPH)             NW 13 G23    NW  9 G19      Lgt/Var
PRECIP AMOUNT                    0.00         0.00         0.00
PRECIP DURATION                                                
MIXING HGT(FT-AGL)               8110                      4300
TRANSPORT WND (MPH)             NW 31                     NW  6
LAL                                 1            1            1
HAINES INDEX                        3            4            4

REMARKS...None.

.FORECAST FOR DAYS 3 THROUGH 7...
.SATURDAY NIGHT...Mostly clear. Lows in the lower 30s. Light winds. 
.SUNDAY...Partly sunny. Highs in the lower 60s. South winds around 5 mph. 
.MONDAY...Showers. Lows in the mid 40s. Highs in the mid 50s. Northwest
winds 5 to 10 mph. 
.TUESDAY...Mostly clear. Lows in the upper 20s. Highs in the upper 40s.
Northeast winds 5 to 10 mph. 
.WEDNESDAY...Mostly clear. Lows in the upper 20s. Highs in the mid 50s.
Southeast winds around 5 mph. 
.THURSDAY...Mostly clear. Warmer. Lows in the upper 30s. Highs in the
upper 60s. South winds 5 to 10 mph. 

SPC's Fire Weather Web Tool (Excellent!), SPC's Fire Weather Outlooks, NWS Fire Weather WEB, Fire Danger Class Map,
Keetch-Byram Drought Index, ROMAN Web, Haines Index ,
WFAS's 10-hr Dead Fuel Moist., WFAS's 100-hr Dead Fuel Moist., Probablity of Ignition, Visual blackness Map, Palmer Drought Index, HPC's Rainfall Forecast Maps


Hazardous Weather Outlook For LEWIS County, Kentucky
322 AM EDT Fri Mar 22 2019

 DAY ONE  Today and Tonight.

No hazardous weather is expected at this time.

 DAYS TWO THROUGH SEVEN  Saturday through Thursday.

No hazardous weather is expected at this time.

 SPOTTER INFORMATION STATEMENT  

Spotter activation is not expected at this time.

Latest LEWIS County, Kentucky Watches, Warnings and Advisories.
Additional Drought Info.: UKAWC Drought Page, Kentucky Drought Watch


7-Day Forecast For LEWIS County, KY

REST OF TODAY
Mostly cloudy. A slight chance of showers this afternoon. Highs around 50. Northwest winds 15 to 20 mph. Gusts up to 35 mph this afternoon. Chance of rain 20 percent.

TONIGHT
Partly cloudy in the evening, then clearing. Lows in the upper 20s. Northwest winds 10 to 15 mph.

SATURDAY
Sunny. Highs in the lower 50s. Northwest winds around 5 mph.

SATURDAY NIGHT
Clear. Lows in the lower 30s. North winds around 5 mph, becoming southeast after midnight.

SUNDAY
Partly cloudy. A slight chance of rain showers in the afternoon. Highs in the lower 60s. South winds 5 to 10 mph. Chance of rain 20 percent.

SUNDAY NIGHT
Cloudy. A chance of showers in the evening, then showers likely after midnight. Warmer with lows in the mid 40s. Chance of rain 70 percent.

MONDAY
Showers. Highs in the mid 50s. Chance of rain 80 percent.

MONDAY NIGHT
Partly cloudy in the evening, then clearing. Much cooler with lows in the upper 20s.

TUESDAY
Sunny. Highs in the upper 40s.

TUESDAY NIGHT
Mostly clear. Lows in the upper 20s.

WEDNESDAY
Sunny. Highs in the mid 50s.

WEDNESDAY NIGHT
Mostly clear. Lows in the upper 30s.

THURSDAY
Mostly sunny in the morning, then becoming partly cloudy. Highs in the upper 60s.

Ag Weather Center, Department of Biosystems & Agricultural Engineering, University of Kentucky